| time (UTC) | temp C | wind direction | speed KPH | gust KPH | rain 1hr cm | rain 24hr cm | rain mn cm | humidity % | barometer mb |
| 20260505124521 | 13 | 202 | 9.7 | 16.1 | 0.00 | 0.00 | 0.00 | 74 | 1008.8 |
| 20260505123014 | 12 | 196 | 9.7 | 17.7 | 0.00 | 0.00 | 0.00 | 76 | 1008.9 |
| 20260505121522 | 12 | 203 | 8.0 | 14.5 | 0.00 | 0.00 | 0.00 | 76 | 1009.0 |
| 20260505120023 | 12 | 216 | 6.4 | 11.3 | 0.00 | 0.00 | 0.00 | 77 | 1009.2 |
| 20260505114513 | 11 | 176 | 8.0 | 16.1 | 0.00 | 0.00 | 0.00 | 77 | 1009.4 |
| 20260505113011 | 11 | 185 | 8.0 | 12.9 | 0.00 | 0.00 | 0.00 | 77 | 1009.3 |
| 20260505111516 | 11 | 205 | 6.4 | 12.9 | 0.00 | 0.00 | 0.00 | 79 | 1009.4 |
| 20260505101530 | 9 | 182 | 4.8 | 9.7 | 0.00 | 0.00 | 0.00 | 82 | 1009.2 |
| 20260505100037 | 9 | 209 | 3.2 | 11.3 | 0.00 | 0.00 | 0.00 | 82 | 1009.0 |
| 20260505094513 | 9 | 182 | 4.8 | 11.3 | 0.00 | 0.00 | 0.00 | 81 | 1009.0 |
| 20260505093018 | 9 | 197 | 4.8 | 11.3 | 0.00 | 0.00 | 0.00 | 82 | 1009.1 |
| 20260505091514 | 8 | 193 | 3.2 | 9.7 | 0.00 | 0.00 | 0.00 | 82 | 1009.1 |
| 20260505090006 | 8 | 178 | 4.8 | 9.7 | 0.00 | 0.00 | 0.00 | 81 | 1009.2 |
| 20260505084523 | 8 | 185 | 1.6 | 6.4 | 0.00 | 0.00 | 0.00 | 81 | 1009.3 |
| 20260505083023 | 8 | 181 | 4.8 | 9.7 | 0.00 | 0.00 | 0.00 | 81 | 1009.3 |
| 20260505081535 | 8 | 217 | 3.2 | 8.0 | 0.00 | 0.00 | 0.00 | 81 | 1009.3 |
| 20260505080046 | 8 | 190 | 3.2 | 8.0 | 0.00 | 0.00 | 0.00 | 80 | 1009.3 |
| 20260505074531 | 9 | 199 | 4.8 | 8.0 | 0.00 | 0.00 | 0.00 | 80 | 1009.3 |
| 20260505073038 | 9 | 189 | 3.2 | 9.7 | 0.00 | 0.00 | 0.00 | 79 | 1009.2 |
| 20260505071639 | 9 | 217 | 3.2 | 8.0 | 0.00 | 0.00 | 0.00 | 79 | 1009.2 |
| 20260505070002 | 9 | 213 | 4.8 | 12.9 | 0.00 | 0.00 | 0.00 | 78 | 1009.1 |
| 20260505064538 | 9 | 221 | 4.8 | 9.7 | 0.00 | 0.00 | 0.00 | 78 | 1009.0 |
| 20260505063137 | 10 | 198 | 4.8 | 11.3 | 0.00 | 0.00 | 0.00 | 77 | 1009.0 |
| 20260505061617 | 10 | 174 | 1.6 | 9.7 | 0.00 | 0.00 | 0.00 | 77 | 1009.1 |
| 20260505060111 | 10 | 178 | 4.8 | 8.0 | 0.00 | 0.00 | 0.00 | 76 | 1009.0 |
| 20260505054640 | 10 | 198 | 4.8 | 9.7 | 0.00 | 0.00 | 0.00 | 75 | 1009.0 |
| 20260505053117 | 10 | 184 | 4.8 | 11.3 | 0.00 | 0.00 | 0.00 | 75 | 1009.0 |
| 20260505051646 | 10 | 173 | 3.2 | 8.0 | 0.00 | 0.00 | 0.00 | 74 | 1008.9 |
| 20260505041642 | 13 | 188 | 6.4 | 14.5 | 0.00 | 0.00 | 0.00 | 64 | 1008.3 |
| 20260505040001 | 14 | 186 | 8.0 | 14.5 | 0.00 | 0.00 | 0.00 | 63 | 1008.1 |
| 20260505034519 | 13 | 189 | 6.4 | 16.1 | 0.00 | 0.00 | 0.00 | 63 | 1008.1 |
| 20260505033145 | 13 | 198 | 6.4 | 16.1 | 0.00 | 0.00 | 0.00 | 64 | 1008.0 |
| 20260505031551 | 13 | 198 | 9.7 | 24.1 | 0.00 | 0.00 | 0.00 | 68 | 1008.0 |
| 20260505030028 | 12 | 220 | 6.4 | 16.1 | 0.00 | 0.00 | 0.00 | 71 | 1008.1 |
| 20260505024524 | 11 | 184 | 6.4 | 12.9 | 0.00 | 0.00 | 0.00 | 72 | 1008.2 |
| 20260505023023 | 11 | 169 | 4.8 | 11.3 | 0.00 | 0.00 | 0.00 | 74 | 1008.1 |
| 20260505021635 | 10 | 198 | 3.2 | 8.0 | 0.00 | 0.00 | 0.00 | 77 | 1008.1 |
| 20260505020037 | 10 | 186 | 4.8 | 11.3 | 0.00 | 0.00 | 0.00 | 78 | 1008.1 |
| 20260505014526 | 10 | 187 | 1.6 | 9.7 | 0.00 | 0.00 | 0.00 | 77 | 1008.1 |
| 20260505013142 | 10 | 197 | 3.2 | 9.7 | 0.00 | 0.00 | 0.00 | 78 | 1007.9 |
| 20260505011612 | 10 | 219 | 3.2 | 6.4 | 0.00 | 0.00 | 0.00 | 77 | 1007.7 |
| 20260505010137 | 10 | 183 | 3.2 | 8.0 | 0.00 | 0.00 | 0.00 | 76 | 1007.5 |
| 20260505004634 | 10 | 225 | 0.0 | 4.8 | 0.00 | 0.00 | 0.00 | 75 | 1007.4 |
| 20260505003113 | 10 | 172 | 0.0 | 3.2 | 0.00 | 0.00 | 0.00 | 73 | 1007.2 |
| 20260505001648 | 11 | 180 | 1.6 | 4.8 | 0.00 | 0.00 | 0.00 | 72 | 1006.9 |
| 20260505000135 | 12 | 181 | 1.6 | 4.8 | 0.00 | 0.00 | 0.00 | 68 | 1006.8 |
| 20260504234528 | 12 | 175 | 3.2 | 6.4 | 0.00 | 0.00 | 0.00 | 64 | 1006.6 |
| 20260504233032 | 13 | 169 | 1.6 | 6.4 | 0.00 | 0.00 | 0.00 | 60 | 1006.4 |
| 20260504231503 | 14 | 174 | 3.2 | 6.4 | 0.00 | 0.00 | 0.00 | 58 | 1006.1 |
| 20260504230136 | 14 | 173 | 3.2 | 9.7 | 0.00 | 0.00 | 0.00 | 59 | 1006.1 |
| 20260504224637 | 15 | 184 | 4.8 | 9.7 | 0.00 | 0.00 | 0.00 | 61 | 1006.0 |
| 20260504223036 | 15 | 157 | 3.2 | 11.3 | 0.00 | 0.00 | 0.00 | 62 | 1005.9 |
| 20260504221553 | 16 | 153 | 4.8 | 14.5 | 0.00 | 0.00 | 0.00 | 60 | 1005.9 |
| 20260504220001 | 16 | 175 | 3.2 | 9.7 | 0.00 | 0.00 | 0.00 | 58 | 1005.8 |
| 20260504214534 | 17 | 176 | 3.2 | 12.9 | 0.00 | 0.00 | 0.00 | 54 | 1005.8 |
| 20260504213135 | 18 | 59 | 1.6 | 12.9 | 0.00 | 0.00 | 0.00 | 52 | 1005.6 |
| 20260504211641 | 18 | 90 | 8.0 | 14.5 | 0.00 | 0.00 | 0.00 | 55 | 1005.6 |
| 20260504210138 | 18 | 46 | 4.8 | 9.7 | 0.00 | 0.00 | 0.00 | 55 | 1005.7 |
| 20260504204641 | 18 | 225 | 1.6 | 8.0 | 0.00 | 0.00 | 0.00 | 57 | 1005.7 |
| 20260504203050 | 17 | 19 | 4.8 | 11.3 | 0.00 | 0.00 | 0.00 | 59 | 1005.7 |
| 20260504201529 | 17 | 38 | 6.4 | 12.9 | 0.00 | 0.00 | 0.00 | 55 | 1006.0 |
| 20260504200148 | 16 | 63 | 4.8 | 14.5 | 0.00 | 0.00 | 0.00 | 58 | 1005.9 |
| 20260504194502 | 17 | 22 | 6.4 | 11.3 | 0.00 | 0.00 | 0.00 | 58 | 1005.9 |
| 20260504193118 | 17 | 188 | 1.6 | 8.0 | 0.00 | 0.00 | 0.00 | 60 | 1005.9 |
| 20260504191534 | 17 | 355 | 3.2 | 8.0 | 0.00 | 0.00 | 0.00 | 61 | 1006.0 |
| 20260504190024 | 15 | 329 | 0.0 | 3.2 | 0.00 | 0.00 | 0.00 | 67 | 1006.3 |
| 20260504184634 | 13 | 185 | 0.0 | 3.2 | 0.00 | 0.00 | 0.00 | 66 | 1006.4 |
| 20260504183039 | 13 | 169 | 0.0 | 4.8 | 0.00 | 0.00 | 0.00 | 62 | 1006.3 |
| 20260504181635 | 13 | 203 | 3.2 | 8.0 | 0.00 | 0.00 | 0.00 | 61 | 1006.2 |
| 20260504180140 | 13 | 178 | 1.6 | 6.4 | 0.00 | 0.00 | 0.00 | 62 | 1006.2 |
| 20260504174610 | 14 | 226 | 3.2 | 8.0 | 0.00 | 0.00 | 0.00 | 58 | 1006.3 |
| 20260504173048 | 15 | 219 | 4.8 | 22.5 | 0.00 | 0.00 | 0.00 | 54 | 1006.0 |
| 20260504170151 | 15 | 213 | 11.3 | 22.5 | 0.00 | 0.00 | 0.00 | 53 | 1005.7 |
| 20260504160117 | 15 | 200 | 8.0 | 19.3 | 0.00 | 0.03 | 0.00 | 54 | 1006.2 |
| 20260504150147 | 14 | 197 | 9.7 | 17.7 | 0.00 | 0.08 | 0.00 | 59 | 1007.1 |